,,,PA_Meas_PMT16A,,PR_Meas_QMR101_102,,RH_Meas_QMH101,,SR_Meas_QMS101,,TA_Meas_QMH101,,GenWind,,GenWind,
date,time,status,PA,status,PR,status,RH,status,SR,status,TA,status,DirAvg,status,SpdAvg,
2011-07-09, 00:00:05,VALID,1001.71,VALID,0,VALID,70.2993,VALID,0,VALID,26.315,VALID,118,VALID,1.7668,
2011-07-09, 00:01:05,VALID,1001.68,VALID,0,VALID,71.4514,VALID,0,VALID,26.0807,VALID,123,VALID,1.55117,
2011-07-09, 00:02:05,VALID,1001.67,VALID,0,VALID,71.9855,VALID,0,VALID,25.9049,VALID,146,VALID,1.74688,
2011-07-09, 00:03:05,VALID,1001.66,VALID,0,VALID,72.4127,VALID,0,VALID,25.8288,VALID,135,VALID,1.65664,
2011-07-09, 00:04:05,VALID,1001.64,VALID,0,VALID,72.9849,VALID,0,VALID,25.7292,VALID,136,VALID,1.18789,
2011-07-09, 00:05:05,VALID,1001.65,VALID,0,VALID,73.5953,VALID,0,VALID,25.6121,VALID,135,VALID,1.14531,
2011-07-09, 00:06:05,VALID,1001.59,VALID,0,VALID,74.2133,VALID,0,VALID,25.4949,VALID,130,VALID,0.915234,
2011-07-09, 00:07:05,VALID,1001.58,VALID,0,VALID,75.167,VALID,0,VALID,25.3993,VALID,130,VALID,0.514453,
2011-07-09, 00:08:05,VALID,1001.54,VALID,0,VALID,75.1899,VALID,0,VALID,25.2607,VALID,162,VALID,0.730469,
2011-07-09, 00:09:05,VALID,1001.55,VALID,0,VALID,75.4264,VALID,0,VALID,25.2021,VALID,139,VALID,0.548047,
2011-07-09, 00:10:05,VALID,1001.53,VALID,0,VALID,75.0907,VALID,0,VALID,25.2021,VALID,162,VALID,1.45586,
2011-07-09, 00:11:05,VALID,1001.5,VALID,0,VALID,74.6635,VALID,0,VALID,25.3193,VALID,161,VALID,1.11953,
2011-07-09, 00:12:05,VALID,1001.48,VALID,0,VALID,72.4127,VALID,0,VALID,25.6121,VALID,175,VALID,2.98203,
2011-07-09, 00:13:05,VALID,1001.5,VALID,0,VALID,70.6579,VALID,0,VALID,26.0416,VALID,201,VALID,2.44648,
2011-07-09, 00:14:05,VALID,1001.41,VALID,0,VALID,68.926,VALID,0,VALID,26.3736,VALID,177,VALID,4.55195,
2011-07-09, 00:15:05,VALID,1001.44,VALID,0,VALID,68.1783,VALID,0,VALID,26.6469,VALID,162,VALID,3.21641,
2011-07-09, 00:16:05,VALID,1001.38,VALID,0,VALID,67.278,VALID,0,VALID,26.7661,VALID,170,VALID,5.14219,
2011-07-09, 00:17:05,VALID,1001.36,VALID,0,VALID,67.5527,VALID,0,VALID,26.8032,VALID,170,VALID,3.40313,
2011-07-09, 00:18:05,VALID,1001.35,VALID,0,VALID,67.1025,VALID,0,VALID,26.8618,VALID,173,VALID,3.80586,
2011-07-09, 00:19:05,VALID,1001.29,VALID,0,VALID,66.7515,VALID,0,VALID,27.0201,VALID,170,VALID,3.39766,
2011-07-09, 00:20:05,VALID,1001.24,VALID,0,VALID,66.4387,VALID,0,VALID,27.0571,VALID,161,VALID,5.6207,
2011-07-09, 00:21:05,VALID,1001.21,VALID,0,VALID,66.3624,VALID,0,VALID,27.1352,VALID,161,VALID,4.41328,
2011-07-09, 00:22:05,VALID,1001.21,VALID,0,VALID,66.3014,VALID,0,VALID,27.1157,VALID,159,VALID,4.50859,
2011-07-09, 00:23:05,VALID,1001.21,VALID,0,VALID,66.6905,VALID,0,VALID,27.0766,VALID,163,VALID,3.39453,
2011-07-09, 00:24:05,VALID,1001.18,VALID,0,VALID,66.7592,VALID,0,VALID,27.0591,VALID,165,VALID,3.44062,
2011-07-09, 00:25:05,VALID,1001.22,VALID,0,VALID,66.9423,VALID,0,VALID,27.0591,VALID,164,VALID,3.6918,
2011-07-09, 00:26:05,VALID,1001.13,VALID,0,VALID,66.805,VALID,0,VALID,27.0396,VALID,163,VALID,3.1457,
2011-07-09, 00:27:05,VALID,1001.15,VALID,0,VALID,66.9728,VALID,0,VALID,26.9789,VALID,156,VALID,3.44102,
2011-07-09, 00:28:05,VALID,1001.16,VALID,0,VALID,67.2017,VALID,0,VALID,26.9399,VALID,170,VALID,2.95352,
2011-07-09, 00:29:05,VALID,1001.16,VALID,0,VALID,66.9575,VALID,0,VALID,26.9399,VALID,171,VALID,4.31914,
2011-07-09, 00:30:05,VALID,1001.1,VALID,0,VALID,66.5455,VALID,0,VALID,27.0787,VALID,200,VALID,3.14102,
2011-07-09, 00:31:05,VALID,1001.11,VALID,0,VALID,66.0725,VALID,0,VALID,27.1547,VALID,176,VALID,3.49258,
2011-07-09, 00:32:05,VALID,1001.1,VALID,0,VALID,66.3777,VALID,0,VALID,27.1547,VALID,178,VALID,3.58516,
2011-07-09, 00:33:05,VALID,1001.06,VALID,0,VALID,65.8589,VALID,0,VALID,27.1938,VALID,177,VALID,2.975,
2011-07-09, 00:34:05,VALID,1001.07,VALID,0,VALID,65.8131,VALID,0,VALID,27.1938,VALID,171,VALID,3.72383,
2011-07-09, 00:35:05,VALID,1001.08,VALID,0,VALID,65.9504,VALID,0,VALID,27.1938,VALID,189,VALID,3.06328,
2011-07-09, 00:36:05,VALID,1001.09,VALID,0,VALID,65.9733,VALID,0.112286,VALID,27.1743,VALID,192,VALID,2.99805,
2011-07-09, 00:37:05,VALID,1001.05,VALID,0,VALID,65.8284,VALID,0,VALID,27.1959,VALID,171,VALID,4.18125,
2011-07-09, 00:38:05,VALID,1001.08,VALID,0,VALID,65.7521,VALID,0,VALID,27.2133,VALID,177,VALID,3.15898,
2011-07-09, 00:39:05,VALID,1001.06,VALID,0,VALID,65.6834,VALID,0,VALID,27.2133,VALID,180,VALID,3.86211,
2011-07-09, 00:40:05,VALID,1001.09,VALID,0,VALID,65.9275,VALID,0,VALID,27.2154,VALID,171,VALID,3.0418,
2011-07-09, 00:41:05,VALID,1001.1,VALID,0,VALID,66.3472,VALID,0,VALID,27.1157,VALID,169,VALID,2.5543,
2011-07-09, 00:42:05,VALID,1001.1,VALID,0,VALID,66.2098,VALID,0,VALID,27.0591,VALID,174,VALID,3.45313,
2011-07-09, 00:43:05,VALID,1001.14,VALID,0,VALID,66.805,VALID,0,VALID,27.0005,VALID,162,VALID,2.61992,
2011-07-09, 00:44:05,VALID,1001.1,VALID,0,VALID,66.6142,VALID,0,VALID,26.9008,VALID,156,VALID,3.68203,
2011-07-09, 00:45:05,VALID,1001.11,VALID,0,VALID,66.2556,VALID,0,VALID,26.9789,VALID,165,VALID,4.66406,
2011-07-09, 00:46:05,VALID,1001.1,VALID,0,VALID,66.1793,VALID,0,VALID,27.0201,VALID,169,VALID,3.37188,
2011-07-09, 00:47:05,VALID,1001.08,VALID,0,VALID,66.103,VALID,0,VALID,27.0375,VALID,167,VALID,3.38438,
2011-07-09, 00:48:05,VALID,1001.07,VALID,0,VALID,65.9199,VALID,0,VALID,27.0571,VALID,176,VALID,3.55586,
2011-07-09, 00:49:05,VALID,1001.08,VALID,0,VALID,65.8131,VALID,0,VALID,27.0766,VALID,173,VALID,2.70781,
2011-07-09, 00:50:05,VALID,1001.05,VALID,0,VALID,65.6834,VALID,0,VALID,27.0571,VALID,160,VALID,3.00898,
2011-07-09, 00:51:05,VALID,1001.03,VALID,0,VALID,65.7368,VALID,0,VALID,27.0766,VALID,160,VALID,4.56328,
2011-07-09, 00:52:05,VALID,1001.01,VALID,0,VALID,65.6529,VALID,0,VALID,27.0982,VALID,165,VALID,2.79883,
2011-07-09, 00:53:05,VALID,1001.12,VALID,0,VALID,65.8741,VALID,0,VALID,27.0375,VALID,167,VALID,3.0168,
2011-07-09, 00:54:05,VALID,1001.11,VALID,0,VALID,65.5766,VALID,0,VALID,27.0591,VALID,173,VALID,4.10469,
2011-07-09, 00:55:05,VALID,1001.11,VALID,0,VALID,65.9504,VALID,0,VALID,27.0961,VALID,156,VALID,2.45547,
2011-07-09, 00:56:05,VALID,1001.15,VALID,0,VALID,65.5232,VALID,0,VALID,27.0961,VALID,164,VALID,3.40859,
2011-07-09, 00:57:05,VALID,1001.17,VALID,0,VALID,65.5308,VALID,0,VALID,27.1373,VALID,170,VALID,2.77891,
2011-07-09, 00:58:05,VALID,1001.17,VALID,0,VALID,65.8131,VALID,0,VALID,27.0766,VALID,164,VALID,2.75117,
2011-07-09, 00:59:05,VALID,1001.17,VALID,0,VALID,66.0649,VALID,0,VALID,27.0375,VALID,153,VALID,2.27187,
2011-07-09, 01:00:05,VALID,1001.17,VALID,0,VALID,66.5303,VALID,0,VALID,26.981,VALID,166,VALID,1.14492,
2011-07-09, 01:01:05,VALID,1001.17,VALID,0,VALID,66.6218,VALID,0,VALID,26.8813,VALID,156,VALID,1.91914,
2011-07-09, 01:02:05,VALID,1001.14,VALID,0,VALID,66.6142,VALID,0,VALID,26.8443,VALID,153,VALID,1.94805,
2011-07-09, 01:03:05,VALID,1001.15,VALID,0,VALID,66.7744,VALID,0,VALID,26.8227,VALID,164,VALID,1.89648,
2011-07-09, 01:04:05,VALID,1001.09,VALID,0,VALID,66.8507,VALID,0,VALID,26.8032,VALID,165,VALID,1.66289,
2011-07-09, 01:05:05,VALID,1001.1,VALID,0,VALID,66.8584,VALID,0,VALID,26.8247,VALID,160,VALID,2.19727,
2011-07-09, 01:06:05,VALID,1001.09,VALID,0,VALID,66.7287,VALID,0,VALID,26.8247,VALID,158,VALID,2.01836,
2011-07-09, 01:07:05,VALID,1001.08,VALID,0,VALID,66.6676,VALID,0,VALID,26.8422,VALID,171,VALID,1.45156,
2011-07-09, 01:08:05,VALID,1001.07,VALID,0,VALID,66.4235,VALID,0,VALID,26.8813,VALID,172,VALID,1.98281,
2011-07-09, 01:09:05,VALID,1001.04,VALID,0,VALID,66.5608,VALID,0,VALID,26.9224,VALID,167,VALID,1.81719,
2011-07-09, 01:10:05,VALID,1001.01,VALID,0,VALID,66.0115,VALID,0,VALID,26.981,VALID,176,VALID,3.05625,
2011-07-09, 01:11:05,VALID,1000.97,VALID,0,VALID,65.7978,VALID,0,VALID,27.0982,VALID,158,VALID,2.61367,
2011-07-09, 01:12:05,VALID,1000.99,VALID,0,VALID,66.0725,VALID,0,VALID,27.0766,VALID,169,VALID,2.44727,
2011-07-09, 01:13:05,VALID,1000.94,VALID,0,VALID,65.981,VALID,0,VALID,27.0787,VALID,163,VALID,3.13281,
2011-07-09, 01:14:05,VALID,1000.95,VALID,0,VALID,66.187,VALID,0,VALID,27.0375,VALID,189,VALID,2.7625,
2011-07-09, 01:15:05,VALID,1000.93,VALID,0,VALID,65.6452,VALID,0,VALID,27.1157,VALID,192,VALID,3.47109,
2011-07-09, 01:16:05,VALID,1000.89,VALID,0,VALID,65.2943,VALID,0,VALID,27.1959,VALID,217,VALID,2.37695,
2011-07-09, 01:17:05,VALID,1000.84,VALID,0,VALID,64.9433,VALID,0,VALID,27.2349,VALID,185,VALID,3.5332,
2011-07-09, 01:18:05,VALID,1000.82,VALID,0,VALID,64.7297,VALID,0,VALID,27.2524,VALID,188,VALID,3.80703,
2011-07-09, 01:19:05,VALID,1000.81,VALID,0,VALID,64.6916,VALID,0,VALID,27.2719,VALID,182,VALID,3.33047,
2011-07-09, 01:20:05,VALID,1000.8,VALID,0,VALID,64.745,VALID,0,VALID,27.2524,VALID,204,VALID,2.93477,
2011-07-09, 01:21:05,VALID,1000.79,VALID,0,VALID,64.867,VALID,0,VALID,27.2133,VALID,195,VALID,3.75859,
2011-07-09, 01:22:05,VALID,1000.8,VALID,0,VALID,65.073,VALID,0,VALID,27.2133,VALID,201,VALID,3.36172,
2011-07-09, 01:23:05,VALID,1000.78,VALID,0,VALID,65.1722,VALID,0,VALID,27.1743,VALID,189,VALID,3.08477,
2011-07-09, 01:24:05,VALID,1000.78,VALID,0,VALID,65.0196,VALID,0,VALID,27.1938,VALID,182,VALID,4.225,
2011-07-09, 01:25:05,VALID,1000.77,VALID,0,VALID,65.0959,VALID,0,VALID,27.1743,VALID,203,VALID,2.55664,
2011-07-09, 01:26:05,VALID,1000.68,VALID,0,VALID,64.9204,VALID,0,VALID,27.1157,VALID,229,VALID,2.65625,
2011-07-09, 01:27:05,VALID,1000.69,VALID,0,VALID,65.1646,VALID,0,VALID,27.1373,VALID,205,VALID,3.08984,
2011-07-09, 01:28:05,VALID,1000.67,VALID,0,VALID,65.2561,VALID,0,VALID,27.0766,VALID,197,VALID,3.35039,
2011-07-09, 01:29:05,VALID,1000.63,VALID,0,VALID,64.6381,VALID,0,VALID,27.0571,VALID,187,VALID,4.67578,
2011-07-09, 01:30:05,VALID,1000.68,VALID,0,VALID,64.7526,VALID,0,VALID,27.0982,VALID,183,VALID,3.26328,
2011-07-09, 01:31:05,VALID,1000.62,VALID,0,VALID,65.0349,VALID,0,VALID,27.0571,VALID,200,VALID,4.01953,
2011-07-09, 01:32:05,VALID,1000.69,VALID,0,VALID,64.7068,VALID,0,VALID,27.0982,VALID,192,VALID,3.84648,
2011-07-09, 01:33:05,VALID,1000.68,VALID,0,VALID,64.2719,VALID,0,VALID,27.0961,VALID,190,VALID,3.99258,
2011-07-09, 01:34:05,VALID,1000.69,VALID,0,VALID,65.1341,VALID,0,VALID,27.0766,VALID,185,VALID,2.04531,
2011-07-09, 01:35:05,VALID,1000.69,VALID,0,VALID,64.1651,VALID,0,VALID,27.0375,VALID,189,VALID,4.12227,
2011-07-09, 01:36:05,VALID,1000.69,VALID,0,VALID,64.188,VALID,0,VALID,27.0961,VALID,188,VALID,3.01328,
2011-07-09, 01:37:05,VALID,1000.73,VALID,0,VALID,64.043,VALID,0,VALID,27.1568,VALID,173,VALID,3.75117,
2011-07-09, 01:38:05,VALID,1000.71,VALID,0,VALID,64.249,VALID,0,VALID,27.0961,VALID,175,VALID,2.61484,
2011-07-09, 01:39:05,VALID,1000.67,VALID,0,VALID,64.2185,VALID,0,VALID,27.0766,VALID,191,VALID,2.50703,
2011-07-09, 01:40:05,VALID,1000.68,VALID,0,VALID,64.1727,VALID,0,VALID,27.0375,VALID,194,VALID,3.15937,
2011-07-09, 01:41:05,VALID,1000.69,VALID,0,VALID,64.2795,VALID,0,VALID,27.0571,VALID,197,VALID,2.95234,
2011-07-09, 01:42:05,VALID,1000.69,VALID,0,VALID,64.0278,VALID,0,VALID,27.0591,VALID,188,VALID,2.97656,
2011-07-09, 01:43:05,VALID,1000.72,VALID,0,VALID,64.1346,VALID,0,VALID,27.0375,VALID,186,VALID,2.92812,
2011-07-09, 01:44:05,VALID,1000.74,VALID,0,VALID,64.4245,VALID,0,VALID,27.0396,VALID,172,VALID,3.1375,
2011-07-09, 01:45:05,VALID,1000.75,VALID,0,VALID,64.127,VALID,0,VALID,27.0396,VALID,175,VALID,3.87422,
2011-07-09, 01:46:05,VALID,1000.77,VALID,0,VALID,64.2414,VALID,0,VALID,27.0571,VALID,174,VALID,3.77187,
2011-07-09, 01:47:05,VALID,1000.78,VALID,0,VALID,64.394,VALID,0,VALID,27.0375,VALID,169,VALID,3.22461,
2011-07-09, 01:48:05,VALID,1000.79,VALID,0,VALID,64.2643,VALID,0,VALID,27.0591,VALID,174,VALID,4.37617,
2011-07-09, 01:49:05,VALID,1000.78,VALID,0,VALID,64.4474,VALID,0,VALID,27.0201,VALID,171,VALID,3.61758,
2011-07-09, 01:50:05,VALID,1000.78,VALID,0,VALID,64.333,VALID,0,VALID,27.0396,VALID,195,VALID,4.37031,
2011-07-09, 01:51:05,VALID,1000.76,VALID,0,VALID,64.8365,VALID,0,VALID,27.0375,VALID,195,VALID,2.72617,
2011-07-09, 01:52:05,VALID,1000.76,VALID,0,VALID,64.4245,VALID,0,VALID,27.0571,VALID,203,VALID,4.22852,
2011-07-09, 01:53:05,VALID,1000.74,VALID,0,VALID,64.4245,VALID,0,VALID,27.0571,VALID,185,VALID,4.34062,
2011-07-09, 01:54:05,VALID,1000.67,VALID,0,VALID,64.3101,VALID,0,VALID,27.0766,VALID,184,VALID,4.8668,
2011-07-09, 01:55:05,VALID,1000.64,VALID,0,VALID,64.333,VALID,0,VALID,27.1157,VALID,191,VALID,4.30664,
2011-07-09, 01:56:05,VALID,1000.6,VALID,0,VALID,64.249,VALID,0,VALID,27.1568,VALID,198,VALID,4.42383,
2011-07-09, 01:57:05,VALID,1000.62,VALID,0,VALID,64.394,VALID,0,VALID,27.1373,VALID,198,VALID,3.3957,
2011-07-09, 01:58:05,VALID,1000.59,VALID,0,VALID,64.5771,VALID,0,VALID,27.1157,VALID,189,VALID,4.01172,
2011-07-09, 01:59:05,VALID,1000.59,VALID,0,VALID,64.8213,VALID,0,VALID,27.0961,VALID,195,VALID,4.53789,
2011-07-09, 02:00:05,VALID,1000.58,VALID,0,VALID,64.6,VALID,0,VALID,27.0766,VALID,207,VALID,3.29063,
2011-07-09, 02:01:05,VALID,1000.54,VALID,0,VALID,64.3558,VALID,0,VALID,27.0982,VALID,193,VALID,4.33398,
2011-07-09, 02:02:05,VALID,1000.54,VALID,0,VALID,64.7221,VALID,0,VALID,27.1177,VALID,208,VALID,2.53789,
2011-07-09, 02:03:05,VALID,1000.48,VALID,0,VALID,64.6229,VALID,0,VALID,27.0787,VALID,200,VALID,4.24687,
2011-07-09, 02:04:05,VALID,1000.49,VALID,0,VALID,64.539,VALID,0,VALID,27.0982,VALID,196,VALID,4.62109,
2011-07-09, 02:05:05,VALID,1000.53,VALID,0,VALID,64.5847,VALID,0,VALID,27.1373,VALID,198,VALID,4.40469,
2011-07-09, 02:06:05,VALID,1000.54,VALID,0,VALID,64.6916,VALID,0,VALID,27.1568,VALID,199,VALID,3.10039,
2011-07-09, 02:07:05,VALID,1000.56,VALID,0,VALID,64.3635,VALID,0,VALID,27.1568,VALID,198,VALID,2.80703,
2011-07-09, 02:08:05,VALID,1000.54,VALID,0,VALID,64.7526,VALID,0,VALID,27.0766,VALID,196,VALID,3.3668,
2011-07-09, 02:09:05,VALID,1000.57,VALID,0,VALID,64.9357,VALID,0,VALID,27.0375,VALID,204,VALID,2.23828,
2011-07-09, 02:10:05,VALID,1000.51,VALID,0,VALID,64.7602,VALID,0,VALID,27.0591,VALID,219,VALID,3.05547,
2011-07-09, 02:11:05,VALID,1000.5,VALID,0,VALID,65.0501,VALID,0,VALID,27.0396,VALID,201,VALID,3.05977,
2011-07-09, 02:12:05,VALID,1000.57,VALID,0,VALID,65.1951,VALID,0,VALID,27.0396,VALID,195,VALID,3.0207,
2011-07-09, 02:13:05,VALID,1000.51,VALID,0,VALID,65.1493,VALID,0,VALID,27.0005,VALID,208,VALID,3.05195,
2011-07-09, 02:14:05,VALID,1000.53,VALID,0,VALID,65.2485,VALID,0,VALID,26.9985,VALID,197,VALID,2.87812,
2011-07-09, 02:15:05,VALID,1000.52,VALID,0,VALID,65.2867,VALID,0,VALID,26.9594,VALID,191,VALID,2.45977,
2011-07-09, 02:16:05,VALID,1000.51,VALID,0,VALID,65.5613,VALID,0,VALID,26.9008,VALID,200,VALID,2.59805,
2011-07-09, 02:17:05,VALID,1000.46,VALID,0,VALID,65.485,VALID,0,VALID,26.8813,VALID,206,VALID,3.01328,
2011-07-09, 02:18:05,VALID,1000.46,VALID,0,VALID,65.5842,VALID,0,VALID,26.8618,VALID,204,VALID,2.75625,
2011-07-09, 02:19:05,VALID,1000.44,VALID,0,VALID,65.6834,VALID,0,VALID,26.8618,VALID,208,VALID,1.91484,
2011-07-09, 02:20:05,VALID,1000.42,VALID,0,VALID,66.1335,VALID,0,VALID,26.8032,VALID,216,VALID,2.14766,
2011-07-09, 02:21:05,VALID,1000.38,VALID,0,VALID,66.0801,VALID,0,VALID,26.7446,VALID,213,VALID,3.29063,
2011-07-09, 02:22:05,VALID,1000.35,VALID,0,VALID,65.9962,VALID,0,VALID,26.7641,VALID,209,VALID,2.16914,
2011-07-09, 02:23:05,VALID,1000.34,VALID,0,VALID,65.6987,VALID,0,VALID,26.7836,VALID,195,VALID,3.7168,
2011-07-09, 02:24:05,VALID,1000.35,VALID,0,VALID,65.5918,VALID,0,VALID,26.8227,VALID,208,VALID,3.41563,
2011-07-09, 02:25:05,VALID,1000.37,VALID,0,VALID,65.3248,VALID,0,VALID,26.8833,VALID,195,VALID,4.12344,
2011-07-09, 02:26:05,VALID,1000.34,VALID,0,VALID,65.3706,VALID,0,VALID,26.8813,VALID,215,VALID,3.44688,
2011-07-09, 02:27:05,VALID,1000.36,VALID,0,VALID,65.3553,VALID,0,VALID,26.9008,VALID,195,VALID,2.05273,
2011-07-09, 02:28:05,VALID,1000.32,VALID,0,VALID,65.3935,VALID,0,VALID,26.9008,VALID,219,VALID,2.69375,
2011-07-09, 02:29:05,VALID,1000.33,VALID,0,VALID,65.2943,VALID,0,VALID,26.9008,VALID,190,VALID,2.90313,
2011-07-09, 02:30:05,VALID,1000.32,VALID,0,VALID,65.2867,VALID,0,VALID,26.9029,VALID,225,VALID,2.83086,
2011-07-09, 02:31:05,VALID,1000.3,VALID,0,VALID,65.2867,VALID,0,VALID,26.9224,VALID,198,VALID,2.79063,
2011-07-09, 02:32:05,VALID,1000.29,VALID,0,VALID,65.218,VALID,0,VALID,26.9204,VALID,202,VALID,3.36406,
2011-07-09, 02:33:05,VALID,1000.28,VALID,0,VALID,65.3477,VALID,0,VALID,26.9204,VALID,202,VALID,2.37227,
2011-07-09, 02:34:05,VALID,1000.25,VALID,0,VALID,65.073,VALID,0,VALID,26.9615,VALID,211,VALID,3.28477,
2011-07-09, 02:35:05,VALID,1000.23,VALID,0,VALID,65.1188,VALID,0,VALID,26.9594,VALID,185,VALID,3.41484,
2011-07-09, 02:36:05,VALID,1000.24,VALID,0,VALID,64.9357,VALID,0,VALID,26.9789,VALID,208,VALID,2.41211,
2011-07-09, 02:37:05,VALID,1000.21,VALID,0,VALID,64.6992,VALID,0,VALID,26.9789,VALID,189,VALID,4.57383,
2011-07-09, 02:38:05,VALID,1000.24,VALID,0,VALID,64.7373,VALID,0,VALID,26.9789,VALID,195,VALID,3.26055,
2011-07-09, 02:39:05,VALID,1000.26,VALID,0,VALID,64.9204,VALID,0,VALID,26.9985,VALID,182,VALID,3.23398,
2011-07-09, 02:40:04,VALID,1000.25,VALID,0,VALID,64.7526,VALID,0,VALID,27.018,VALID,202,VALID,3.15508,
2011-07-09, 02:41:04,VALID,1000.23,VALID,0,VALID,64.6839,VALID,0,VALID,26.9985,VALID,197,VALID,2.85664,
2011-07-09, 02:42:04,VALID,1000.19,VALID,0,VALID,64.6229,VALID,0,VALID,27.018,VALID,199,VALID,2.59961,
2011-07-09, 02:43:04,VALID,1000.13,VALID,0,VALID,64.6305,VALID,0,VALID,27.0591,VALID,214,VALID,1.99492,
2011-07-09, 02:44:04,VALID,1000.07,VALID,0,VALID,64.2643,VALID,0,VALID,27.0375,VALID,182,VALID,4.17891,
2011-07-09, 02:45:04,VALID,1000.11,VALID,0,VALID,64.3406,VALID,0,VALID,27.0766,VALID,214,VALID,2.73672,
2011-07-09, 02:46:04,VALID,1000.11,VALID,0,VALID,64.2643,VALID,0,VALID,27.0571,VALID,199,VALID,2.08789,
2011-07-09, 02:47:04,VALID,1000.12,VALID,0,VALID,64.3711,VALID,0,VALID,27.0571,VALID,209,VALID,2.1125,
2011-07-09, 02:48:04,VALID,1000.12,VALID,0,VALID,64.3024,VALID,0,VALID,27.0787,VALID,208,VALID,2.43516,
2011-07-09, 02:49:04,VALID,1000.17,VALID,0,VALID,64.1193,VALID,0,VALID,27.1157,VALID,214,VALID,2.78867,
2011-07-09, 02:50:04,VALID,1000.21,VALID,0,VALID,64.2643,VALID,0,VALID,27.0961,VALID,206,VALID,2.10781,
2011-07-09, 02:51:04,VALID,1000.22,VALID,0,VALID,63.9286,VALID,0,VALID,27.0787,VALID,195,VALID,2.18945,
2011-07-09, 02:52:04,VALID,1000.23,VALID,0,VALID,63.837,VALID,0,VALID,27.0766,VALID,204,VALID,3.0332,
2011-07-09, 02:53:04,VALID,1000.26,VALID,0,VALID,64.3482,VALID,0,VALID,27.1177,VALID,218,VALID,1.46133,
2011-07-09, 02:54:04,VALID,1000.29,VALID,0,VALID,64.1498,VALID,0,VALID,27.0766,VALID,210,VALID,1.90508,
2011-07-09, 02:55:04,VALID,1000.29,VALID,0,VALID,64.2109,VALID,0,VALID,27.0766,VALID,233,VALID,1.99453,
2011-07-09, 02:56:04,VALID,1000.29,VALID,0,VALID,64.2033,VALID,0,VALID,27.0571,VALID,215,VALID,1.28086,
2011-07-09, 02:57:04,VALID,1000.26,VALID,0,VALID,64.3482,VALID,0,VALID,27.0591,VALID,223,VALID,0.524609,
2011-07-09, 02:58:04,VALID,1000.25,VALID,0,VALID,64.4321,VALID,0,VALID,27.0201,VALID,203,VALID,1.44453,
2011-07-09, 02:59:04,VALID,1000.2,VALID,0,VALID,64.4932,VALID,0,VALID,26.9594,VALID,212,VALID,1.85469,
2011-07-09, 03:00:04,VALID,1000.19,VALID,0,VALID,64.2795,VALID,0,VALID,27.018,VALID,211,VALID,1.91602,
2011-07-09, 03:01:04,VALID,1000.13,VALID,0,VALID,63.9515,VALID,0,VALID,27.0396,VALID,220,VALID,1.67109,
2011-07-09, 03:02:04,VALID,1000.06,VALID,0,VALID,64.0735,VALID,0,VALID,27.0375,VALID,223,VALID,2.19375,
2011-07-09, 03:03:04,VALID,1000.02,VALID,0,VALID,64.0583,VALID,0,VALID,27.0571,VALID,207,VALID,2.02227,
2011-07-09, 03:04:04,VALID,1000.01,VALID,0,VALID,63.8675,VALID,0,VALID,27.0571,VALID,201,VALID,2.04492,
2011-07-09, 03:05:04,VALID,1000.01,VALID,0,VALID,63.8599,VALID,0,VALID,27.0571,VALID,195,VALID,2.01016,
2011-07-09, 03:06:04,VALID,999.985,VALID,0,VALID,63.7378,VALID,0,VALID,27.0766,VALID,188,VALID,2.13906,
2011-07-09, 03:07:04,VALID,999.98,VALID,0,VALID,63.5471,VALID,0,VALID,27.1373,VALID,189,VALID,1.59297,
2011-07-09, 03:08:04,VALID,999.985,VALID,0,VALID,63.8141,VALID,0,VALID,27.1352,VALID,203,VALID,1.0375,
2011-07-09, 03:09:04,VALID,999.96,VALID,0,VALID,63.4098,VALID,0,VALID,27.1568,VALID,208,VALID,2.36172,
2011-07-09, 03:10:04,VALID,999.966,VALID,0,VALID,63.219,VALID,0,VALID,27.1743,VALID,173,VALID,3.18594,
2011-07-09, 03:11:04,VALID,999.94,VALID,0,VALID,63.0741,VALID,0,VALID,27.1938,VALID,190,VALID,3.07461,
2011-07-09, 03:12:04,VALID,999.938,VALID,0,VALID,62.5705,VALID,0,VALID,27.2524,VALID,204,VALID,2.50195,
2011-07-09, 03:13:04,VALID,1000.01,VALID,0,VALID,62.7155,VALID,0,VALID,27.2524,VALID,176,VALID,3.03359,
2011-07-09, 03:14:04,VALID,1000.03,VALID,0,VALID,63.1809,VALID,0,VALID,27.1938,VALID,173,VALID,2.59766,
2011-07-09, 03:15:04,VALID,1000.02,VALID,0,VALID,63.3106,VALID,0,VALID,27.1352,VALID,188,VALID,3.28047,
2011-07-09, 03:16:04,VALID,1000.03,VALID,0,VALID,62.7613,VALID,0,VALID,27.1938,VALID,173,VALID,3.70703,
2011-07-09, 03:17:04,VALID,1000.04,VALID,0,VALID,62.7002,VALID,0,VALID,27.2329,VALID,187,VALID,2.61992,
2011-07-09, 03:18:04,VALID,1000.04,VALID,0,VALID,62.6697,VALID,0,VALID,27.2524,VALID,191,VALID,2.20313,
2011-07-09, 03:19:04,VALID,1000.06,VALID,0,VALID,62.3798,VALID,0,VALID,27.2524,VALID,210,VALID,2.66367,
2011-07-09, 03:20:04,VALID,1000.11,VALID,0,VALID,62.3264,VALID,0,VALID,27.2915,VALID,199,VALID,2.00664,
2011-07-09, 03:21:04,VALID,1000.08,VALID,0,VALID,61.9296,VALID,0,VALID,27.2719,VALID,213,VALID,2.03164,
2011-07-09, 03:22:04,VALID,1000.1,VALID,0,VALID,61.922,VALID,0,VALID,27.2915,VALID,186,VALID,1.73906,
2011-07-09, 03:23:04,VALID,1000.09,VALID,0,VALID,62.0288,VALID,0,VALID,27.3521,VALID,179,VALID,2.74531,
2011-07-09, 03:24:04,VALID,1000.14,VALID,0,VALID,62.1356,VALID,0,VALID,27.35,VALID,207,VALID,1.80352,
2011-07-09, 03:25:04,VALID,1000.19,VALID,0,VALID,62.128,VALID,0,VALID,27.35,VALID,183,VALID,2.94062,
2011-07-09, 03:26:04,VALID,1000.17,VALID,0,VALID,61.8839,VALID,0,VALID,27.3305,VALID,204,VALID,2.04766,
2011-07-09, 03:27:04,VALID,1000.17,VALID,0,VALID,61.922,VALID,0,VALID,27.3521,VALID,189,VALID,2.21875,
2011-07-09, 03:28:04,VALID,1000.18,VALID,0,VALID,62.1661,VALID,0,VALID,27.311,VALID,223,VALID,1.8332,
2011-07-09, 03:29:04,VALID,1000.15,VALID,0,VALID,62.4637,VALID,0,VALID,27.274,VALID,219,VALID,1.92695,
2011-07-09, 03:30:04,VALID,1000.14,VALID,0,VALID,62.7765,VALID,0,VALID,27.2154,VALID,207,VALID,1.07773,
2011-07-09, 03:31:04,VALID,1000.09,VALID,0,VALID,63.1885,VALID,0,VALID,27.0982,VALID,233,VALID,1.26289,
2011-07-09, 03:32:04,VALID,1000.13,VALID,0,VALID,63.3869,VALID,0,VALID,27.0571,VALID,203,VALID,1.8418,
2011-07-09, 03:33:04,VALID,1000.14,VALID,0,VALID,63.2877,VALID,0,VALID,27.0571,VALID,196,VALID,2.34102,
2011-07-09, 03:34:04,VALID,1000.17,VALID,0,VALID,62.9367,VALID,0,VALID,27.1157,VALID,188,VALID,2.22695,
2011-07-09, 03:35:04,VALID,1000.2,VALID,0,VALID,62.6392,VALID,0,VALID,27.1547,VALID,185,VALID,2.9957,
2011-07-09, 03:36:04,VALID,1000.15,VALID,0,VALID,62.2501,VALID,0,VALID,27.2133,VALID,192,VALID,2.67578,
2011-07-09, 03:37:04,VALID,1000.18,VALID,0,VALID,62.0746,VALID,0,VALID,27.2524,VALID,198,VALID,3.2457,
2011-07-09, 03:38:04,VALID,1000.15,VALID,0,VALID,62.0975,VALID,0,VALID,27.2915,VALID,203,VALID,1.71641,
2011-07-09, 03:39:04,VALID,1000.13,VALID,0,VALID,61.9983,VALID,0,VALID,27.2719,VALID,215,VALID,1.85234,
2011-07-09, 03:40:04,VALID,1000.12,VALID,0,VALID,62.189,VALID,0,VALID,27.2329,VALID,223,VALID,1.64766,
2011-07-09, 03:41:04,VALID,1000.12,VALID,0,VALID,62.4713,VALID,0,VALID,27.1938,VALID,240,VALID,1.93477,
2011-07-09, 03:42:04,VALID,1000.12,VALID,0,VALID,62.7155,VALID,0,VALID,27.1352,VALID,230,VALID,1.44375,
2011-07-09, 03:43:04,VALID,1000.12,VALID,0,VALID,62.9215,VALID,0,VALID,27.0766,VALID,194,VALID,1.1418,
2011-07-09, 03:44:04,VALID,1000.08,VALID,0,VALID,62.7384,VALID,0,VALID,27.0375,VALID,184,VALID,2.44609,
2011-07-09, 03:45:04,VALID,1000.05,VALID,0,VALID,62.7613,VALID,0,VALID,27.0787,VALID,182,VALID,2.28984,
2011-07-09, 03:46:04,VALID,1000.04,VALID,0,VALID,62.685,VALID,0,VALID,27.0787,VALID,183,VALID,2.03359,